{"data":{"norad_id":63247,"epoch":"2026-05-24T23:44:54.794976Z","epoch_age_seconds":73070,"freshness":"FRESH","line1":"1 63247U 25052AP  26144.98952309  .00004527  00000+0  39728-3 0  9997","line2":"2 63247  97.6933  37.5222 0001076 305.3557  54.7564 14.97107858 65196","mean_motion":14.97107858,"eccentricity":0.0001076,"inclination_deg":97.6933,"raan_deg":37.5222,"arg_perigee_deg":305.3557,"mean_anomaly_deg":54.7564,"bstar":0.00039728,"rev_number":6519,"period_min":96.185454662145,"perigee_km":575.08958736905,"apogee_km":576.58608275355,"semimajor_km":6953.9748350613,"source":"CELESTRAK","updated_at":"2026-05-25T13:38:03.586049Z"}}